Regional Weather Roundup
Issued by NWS

Home | Current Version | Previous Version | Text Only | Print | Product List | Glossary Off
Versions: 1 2 3 4 5 6 7 8 9 10 11 12 13 14 15 16 17 18 19 20 21 22 23 24 25 26 27 28 29 30 31 32 33 34 35 36 37 38 39 40 41 42 43 44 45 46 47 48 49 50

000
ASUS43 KLOT 050100
RWRIL

ILLINOIS REGIONAL WEATHER ROUNDUP
NATIONAL WEATHER SERVICE CHICAGO/ROMEOVILLE IL
700 PM CST WED MAR 04 2015

NOTE: "FAIR" INDICATES FEW OR NO CLOUDS BELOW 12,000 FEET WITH NO
SIGNIFICANT WEATHER AND/OR OBSTRUCTIONS TO VISIBILITY.

* THESE STATIONS ARE NOT UNDER NWS QUALITY CONTROL. THEY ALSO MAY NOT
  REPORT WEATHER SUCH AS PRECIPITATION OR FOG.

ILZ001-002-007-009-015-016-024-050200-
NORTHWEST ILLINOIS

CITY           SKY/WX    TMP DP  RH WIND       PRES   REMARKS
MOLINE         PTCLDY    16   2  54 NW3       30.32R
STERLING*      PTCLDY    14   1  57 W10       30.30R WCI   1
$$

ILZ003-004-008-010-011-017-018-050200-
NORTH CENTRAL ILLINOIS

CITY           SKY/WX    TMP DP  RH WIND       PRES   REMARKS
ROCKFORD       PTCLDY    12  -2  53 W6        30.26F WCI   3
FREEPORT*      PTCLDY    11  -4  52 NW10      30.27R WCI  -3
DE KALB*       PTCLDY    11   1  63 W9        30.24F WCI  -2
$$

ILZ005-006-012>014-019>023-050200-
NORTHEAST ILLINOIS

CITY           SKY/WX    TMP DP  RH WIND       PRES   REMARKS
CHICAGO-OHARE  MOCLDY    16  -3  43 NW13      30.23R WCI   2
CHICAGO-MIDWAY MOCLDY    20   0  41 NW14      30.23F WCI   7
AURORA         PTCLDY    12   1  61 W10       30.26R WCI  -1
LANSING*       MOCLDY    19  -1  40 NW12      30.24R WCI   7
WAUKEGAN       PTCLDY    15  -5  40 NW3       30.23R
DUPAGE AIRPORT PTCLDY    14   0  53 W9        30.23S WCI   2
WHEELING       PTCLDY    17  -3  41 NW9       30.26R WCI   6
NORTHERLY ISL    N/A     20  -1  40 W15         N/A  WCI   6
$$

LMZ740>746-050200-
SOUTHERN LAKE MICHIGAN

STATION/POSITION SKY/WX   TEMP    WIND        PRES    VSBY  WAVE
                          AIR SEA DIR/SP/G                  HT/PER
                          (F)     (DEG/KT/KT) (MB)    (MI)  (FT/S)
WAUKEGAN HARBOR            17                   N/A
HARRISON CRIB              19     310/ 15/ 18   N/A
BURNHAM HARBOR             20     290/  8/ 14   N/A
CALUMET HARBOR             20     260/  8/ 12 1022.7R
MICHIGAN CITY              19     310/ 14/ 17   N/A
$$

ILZ025>027-034>036-040-047-049-050-058-095>099-050200-
WEST-CENTRAL ILLINOIS

CITY           SKY/WX    TMP DP  RH WIND       PRES   REMARKS
QUINCY         MOCLDY    19   4  51 CALM      30.34R
MACOMB*        PTCLDY    16   6  66 CALM      30.33R
$$

ILZ028>032-037-038-041>044-048-051>054-059>061-050200-
CENTRAL ILLINOIS

CITY           SKY/WX    TMP DP  RH WIND       PRES   REMARKS
DECATUR        CLOUDY    19   5  54 N14       30.30R WCI   6
PEORIA         MOCLDY    18   2  49 CALM      30.32R
SPRINGFIELD    CLOUDY    20   4  50 N9        30.31R WCI   9
TAYLORVILLE    NOT AVBL
$$

ILZ033-039-045-046-055>057-062-063-050200-
EAST-CENTRAL ILLINOIS

CITY           SKY/WX    TMP DP  RH WIND       PRES   REMARKS
CHAMPAIGN      CLOUDY    17   7  64 NW15      30.26R WCI   2
MATTOON        CLOUDY    18   9  68 N15       30.26R WCI   4
$$

ILZ079-100>102-050200-
SOUTHWEST ILLINOIS

CITY           SKY/WX    TMP DP  RH WIND       PRES   REMARKS
CAHOKIA*       CLOUDY    24   6  46 N16       30.32R WCI  11
$$

ILZ064>066-069>071-074>076-080>082-084>086-088>090-092>094-050200-
SOUTH-CENTRAL ILLINOIS

CITY           SKY/WX    TMP DP  RH WIND       PRES   REMARKS
CARBONDALE     FLURRIES  18  13  80 N8        30.28S WCI   8
MT. VERNON     CLOUDY    19   7  58 N9G16     30.28R WCI   9
$$

ILZ067-068-072-073-078-083-087-091-050200-
SOUTHEAST ILLINOIS

CITY           SKY/WX    TMP DP  RH WIND       PRES   REMARKS
LAWRENCEVILLE  CLOUDY    20  10  65 N16       30.28R WCI   6
$$

ABBREVIATIONS USED IN REMARKS
   TC - TEMPERATURE IN CELSIUS
  WCI - WIND CHILL INDEX
   HX - HEAT INDEX
  VSB - VISIBILITY
$$




USA.gov is the U.S. government's official web portal to all federal, state and local government web resources and services.